Location: Edoum�
(0.9447°N, 10.6482°E)
Time: 23:14:41
(UTC+00:00)

Cosmos 1633 Rocket - Pass Details

Date: 07 June 2020
Orbit: 608 x 623 km, 82.5° (Epoch: 10 July)

Event Time Altitude Azimuth Distance (km) Brightness Sun altitude
Exits shadow 04:08:11 13° 196° (SSW) 1,787 5.0 -15.3°
Maximum altitude 04:12:00 57° 274° (W) 719 3.1 -14.4°
Drops below altitude 10° 04:16:15 10° 352° (N) 1,953 5.8 -13.4°
Sets 04:18:29 0° 357° (N) 2,853 6.7 -12.9°
